Time,TemperatureF,DewpointF,PressureIn,WindDirection,WindDirectionDegrees,WindSpeedMPH,WindSpeedGustMPH,Humidity,HourlyPrecipIn,Conditions,Clouds,dailyrainin,SoftwareType,DateUTC
2013-06-01 00:01:00,59.9,21.0,30.09,North,350,0.0,-999.0,22,-99.99,,,0.00,weatherlink.com 1.10,2013-06-01 06:01:00,
2013-06-01 00:14:00,55.5,31.0,30.09,WNW,295,9.0,-999.0,39,-99.99,,,0.00,weatherlink.com 1.10,2013-06-01 06:14:00,
2013-06-01 00:31:00,53.6,33.0,30.10,ENE,74,7.0,-999.0,46,-99.99,,,0.00,weatherlink.com 1.10,2013-06-01 06:31:00,
2013-06-01 00:44:00,52.3,33.0,30.10,ENE,76,3.0,-999.0,49,-99.99,,,0.00,weatherlink.com 1.10,2013-06-01 06:44:00,
2013-06-01 00:59:00,51.4,34.0,30.11,South,172,0.0,-999.0,51,-99.99,,,0.00,weatherlink.com 1.10,2013-06-01 06:59:00,
2013-06-01 01:14:00,51.0,34.0,30.11,SSW,194,0.0,-999.0,52,-99.99,,,0.00,weatherlink.com 1.10,2013-06-01 07:14:00,
2013-06-01 01:29:00,49.2,33.0,30.12,South,184,5.0,-999.0,53,-99.99,,,0.00,weatherlink.com 1.10,2013-06-01 07:29:00,
2013-06-01 01:44:00,46.5,34.0,30.12,SSW,212,7.0,-999.0,61,-99.99,,,0.00,weatherlink.com 1.10,2013-06-01 07:44:00,
2013-06-01 01:59:00,46.4,34.0,30.12,South,184,5.0,-999.0,62,-99.99,,,0.00,weatherlink.com 1.10,2013-06-01 07:59:00,
2013-06-01 02:14:00,46.3,34.0,30.13,SSW,209,4.0,-999.0,63,-99.99,,,0.00,weatherlink.com 1.10,2013-06-01 08:14:00,
2013-06-01 02:29:00,46.9,34.0,30.13,SW,215,3.0,-999.0,62,-99.99,,,0.00,weatherlink.com 1.10,2013-06-01 08:29:00,
2013-06-01 02:44:00,46.5,34.0,30.14,WNW,296,3.0,-999.0,62,-99.99,,,0.00,weatherlink.com 1.10,2013-06-01 08:44:00,
2013-06-01 02:59:00,46.7,35.0,30.14,WSW,254,2.0,-999.0,63,-99.99,,,0.00,weatherlink.com 1.10,2013-06-01 08:59:00,
2013-06-01 03:14:00,45.9,34.0,30.14,WSW,241,5.0,-999.0,63,-99.99,,,0.00,weatherlink.com 1.10,2013-06-01 09:14:00,
2013-06-01 03:29:00,45.9,34.0,30.14,WSW,245,6.0,-999.0,63,-99.99,,,0.00,weatherlink.com 1.10,2013-06-01 09:29:00,
2013-06-01 03:44:00,45.7,34.0,30.14,West,267,4.0,-999.0,64,-99.99,,,0.00,weatherlink.com 1.10,2013-06-01 09:44:00,
2013-06-01 03:59:00,45.8,33.0,30.14,WSW,257,3.0,-999.0,62,-99.99,,,0.00,weatherlink.com 1.10,2013-06-01 09:59:00,
2013-06-01 04:14:00,45.7,33.0,30.15,WNW,285,4.0,-999.0,62,-99.99,,,0.00,weatherlink.com 1.10,2013-06-01 10:14:00,
2013-06-01 04:29:00,45.7,33.0,30.15,WNW,296,3.0,-999.0,61,-99.99,,,0.00,weatherlink.com 1.10,2013-06-01 10:29:00,
2013-06-01 04:44:00,45.8,32.0,30.15,WNW,284,3.0,-999.0,60,-99.99,,,0.00,weatherlink.com 1.10,2013-06-01 10:44:00,
2013-06-01 04:59:00,45.1,33.0,30.15,West,260,2.0,-999.0,63,-99.99,,,0.00,weatherlink.com 1.10,2013-06-01 10:59:00,
2013-06-01 05:14:00,45.7,32.0,30.15,WSW,246,4.0,-999.0,60,-99.99,,,0.00,weatherlink.com 1.10,2013-06-01 11:14:00,
2013-06-01 05:29:00,46.1,33.0,30.17,NNW,338,4.0,-999.0,61,-99.99,,,0.00,weatherlink.com 1.10,2013-06-01 11:29:00,
2013-06-01 05:44:00,46.0,34.0,30.18,WNW,290,3.0,-999.0,64,-99.99,,,0.00,weatherlink.com 1.10,2013-06-01 11:44:00,
2013-06-01 05:59:00,47.6,35.0,30.18,WNW,286,1.0,-999.0,62,-99.99,,,0.00,weatherlink.com 1.10,2013-06-01 11:59:00,
2013-06-01 06:14:00,47.7,36.0,30.19,NE,37,1.0,-999.0,63,-99.99,,,0.00,weatherlink.com 1.10,2013-06-01 12:14:00,
2013-06-01 06:29:00,48.7,36.0,30.19,NNW,329,5.0,-999.0,62,-99.99,,,0.00,weatherlink.com 1.10,2013-06-01 12:29:00,
2013-06-01 06:44:00,49.4,35.0,30.20,NW,311,1.0,-999.0,59,-99.99,,,0.00,weatherlink.com 1.10,2013-06-01 12:44:00,
2013-06-01 06:59:00,50.1,39.0,30.21,West,278,1.0,-999.0,65,-99.99,,,0.00,weatherlink.com 1.10,2013-06-01 12:59:00,
2013-06-01 07:14:00,50.5,38.0,30.21,SW,230,3.0,-999.0,63,-99.99,,,0.00,weatherlink.com 1.10,2013-06-01 13:14:00,
2013-06-01 07:29:00,51.1,36.0,30.21,WSW,250,1.0,-999.0,57,-99.99,,,0.00,weatherlink.com 1.10,2013-06-01 13:29:00,
2013-06-01 07:44:00,52.4,35.0,30.22,West,264,1.0,-999.0,52,-99.99,,,0.00,weatherlink.com 1.10,2013-06-01 13:44:00,
2013-06-01 07:59:00,53.7,36.0,30.22,SSE,154,2.0,-999.0,52,-99.99,,,0.00,weatherlink.com 1.10,2013-06-01 13:59:00,
2013-06-01 08:14:00,55.0,36.0,30.22,ESE,118,3.0,-999.0,49,-99.99,,,0.00,weatherlink.com 1.10,2013-06-01 14:14:00,
2013-06-01 08:29:00,55.5,36.0,30.22,SE,129,3.0,-999.0,49,-99.99,,,0.00,weatherlink.com 1.10,2013-06-01 14:29:00,
2013-06-01 08:44:00,56.0,37.0,30.23,SSE,161,2.0,-999.0,49,-99.99,,,0.00,weatherlink.com 1.10,2013-06-01 14:44:00,
2013-06-01 08:59:00,56.3,37.0,30.23,SSE,164,3.0,-999.0,49,-99.99,,,0.00,weatherlink.com 1.10,2013-06-01 14:59:00,
2013-06-01 09:14:00,57.5,37.0,30.23,SSE,167,5.0,-999.0,46,-99.99,,,0.00,weatherlink.com 1.10,2013-06-01 15:14:00,
2013-06-01 09:29:00,58.0,38.0,30.23,SE,146,1.0,-999.0,47,-99.99,,,0.00,weatherlink.com 1.10,2013-06-01 15:29:00,
2013-06-01 09:44:00,58.1,37.0,30.23,SSE,167,6.0,-999.0,45,-99.99,,,0.00,weatherlink.com 1.10,2013-06-01 15:44:00,
2013-06-01 09:59:00,59.1,38.0,30.23,South,171,6.0,-999.0,46,-99.99,,,0.00,weatherlink.com 1.10,2013-06-01 15:59:00,
2013-06-01 10:14:00,59.4,38.0,30.23,SSE,159,5.0,-999.0,45,-99.99,,,0.00,weatherlink.com 1.10,2013-06-01 16:14:00,
2013-06-01 10:29:00,59.9,37.0,30.22,South,183,4.0,-999.0,42,-99.99,,,0.00,weatherlink.com 1.10,2013-06-01 16:29:00,
2013-06-01 10:44:00,60.2,38.0,30.23,South,173,2.0,-999.0,44,-99.99,,,0.00,weatherlink.com 1.10,2013-06-01 16:44:00,
2013-06-01 10:59:00,60.6,39.0,30.22,SSE,163,4.0,-999.0,45,-99.99,,,0.00,weatherlink.com 1.10,2013-06-01 16:59:00,
2013-06-01 11:14:00,62.5,38.0,30.23,SSE,167,2.0,-999.0,41,-99.99,,,0.00,weatherlink.com 1.10,2013-06-01 17:14:00,
2013-06-01 11:29:00,63.8,39.0,30.23,ESE,107,4.0,-999.0,41,-99.99,,,0.00,weatherlink.com 1.10,2013-06-01 17:29:00,
2013-06-01 11:44:00,64.0,36.0,30.23,NNW,335,0.0,-999.0,36,-99.99,,,0.00,weatherlink.com 1.10,2013-06-01 17:44:00,
2013-06-01 11:59:00,65.0,37.0,30.23,ESE,107,9.0,-999.0,35,-99.99,,,0.00,weatherlink.com 1.10,2013-06-01 17:59:00,
2013-06-01 12:14:00,64.3,36.0,30.23,NNE,14,3.0,-999.0,35,-99.99,,,0.00,weatherlink.com 1.10,2013-06-01 18:14:00,
2013-06-01 12:29:00,62.9,37.0,30.22,NNE,22,10.0,-999.0,38,-99.99,,,0.00,weatherlink.com 1.10,2013-06-01 18:29:00,
2013-06-01 12:44:00,64.1,39.0,30.22,East,101,5.0,-999.0,40,-99.99,,,0.00,weatherlink.com 1.10,2013-06-01 18:44:00,
2013-06-01 12:59:00,65.4,38.0,30.22,NNE,25,6.0,-999.0,37,-99.99,,,0.00,weatherlink.com 1.10,2013-06-01 18:59:00,
2013-06-01 13:14:00,66.9,37.0,30.22,NNE,23,0.0,-999.0,33,-99.99,,,0.00,weatherlink.com 1.10,2013-06-01 19:14:00,
2013-06-01 13:29:00,66.8,38.0,30.22,East,82,10.0,-999.0,35,-99.99,,,0.00,weatherlink.com 1.10,2013-06-01 19:29:00,
2013-06-01 13:44:00,66.9,40.0,30.21,South,188,7.0,-999.0,38,-99.99,,,0.00,weatherlink.com 1.10,2013-06-01 19:44:00,
2013-06-01 13:59:00,68.0,37.0,30.21,SE,131,6.0,-999.0,32,-99.99,,,0.00,weatherlink.com 1.10,2013-06-01 19:59:00,
2013-06-01 14:14:00,66.3,36.0,30.21,ENE,75,3.0,-999.0,33,-99.99,,,0.00,weatherlink.com 1.10,2013-06-01 20:14:00,
2013-06-01 14:29:00,66.7,37.0,30.21,NE,40,0.0,-999.0,33,-99.99,,,0.00,weatherlink.com 1.10,2013-06-01 20:29:00,
2013-06-01 14:44:00,66.7,38.0,30.21,East,100,0.0,-999.0,35,-99.99,,,0.00,weatherlink.com 1.10,2013-06-01 20:44:00,
2013-06-01 14:59:00,69.4,39.0,30.20,SSE,163,5.0,-999.0,33,-99.99,,,0.00,weatherlink.com 1.10,2013-06-01 20:59:00,
2013-06-01 15:14:00,70.5,38.0,30.20,ESE,117,9.0,-999.0,30,-99.99,,,0.00,weatherlink.com 1.10,2013-06-01 21:14:00,
2013-06-01 15:29:00,69.6,39.0,30.20,ESE,121,6.0,-999.0,33,-99.99,,,0.00,weatherlink.com 1.10,2013-06-01 21:29:00,
2013-06-01 15:44:00,68.4,39.0,30.21,East,90,6.0,-999.0,34,-99.99,,,0.00,weatherlink.com 1.10,2013-06-01 21:44:00,
2013-06-01 15:59:00,68.6,37.0,30.20,East,101,4.0,-999.0,32,-99.99,,,0.00,weatherlink.com 1.10,2013-06-01 21:59:00,
2013-06-01 16:14:00,68.5,40.0,30.20,SSE,165,4.0,-999.0,35,-99.99,,,0.00,weatherlink.com 1.10,2013-06-01 22:14:00,
2013-06-01 16:29:00,68.6,37.0,30.21,South,182,3.0,-999.0,32,-99.99,,,0.00,weatherlink.com 1.10,2013-06-01 22:29:00,
2013-06-01 16:44:00,68.1,37.0,30.20,ESE,105,0.0,-999.0,32,-99.99,,,0.00,weatherlink.com 1.10,2013-06-01 22:44:00,
2013-06-01 16:59:00,67.5,37.0,30.19,SSW,207,0.0,-999.0,32,-99.99,,,0.00,weatherlink.com 1.10,2013-06-01 22:59:00,
2013-06-01 17:14:00,69.6,38.0,30.19,ESE,109,2.0,-999.0,32,-99.99,,,0.00,weatherlink.com 1.10,2013-06-01 23:14:00,
2013-06-01 17:29:00,70.2,37.0,30.19,NNE,22,2.0,-999.0,30,-99.99,,,0.00,weatherlink.com 1.10,2013-06-01 23:29:00,
2013-06-01 17:44:00,69.1,37.0,30.19,NE,49,9.0,-999.0,31,-99.99,,,0.00,weatherlink.com 1.10,2013-06-01 23:44:00,
2013-06-01 17:59:00,68.9,37.0,30.19,ENE,60,2.0,-999.0,31,-99.99,,,0.00,weatherlink.com 1.10,2013-06-01 23:59:00,
2013-06-01 18:14:00,69.0,37.0,30.19,NNE,22,3.0,-999.0,31,-99.99,,,0.00,weatherlink.com 1.10,2013-06-02 00:14:00,
2013-06-01 18:29:00,68.7,37.0,30.19,ENE,67,1.0,-999.0,31,-99.99,,,0.00,weatherlink.com 1.10,2013-06-02 00:29:00,
2013-06-01 18:44:00,69.4,36.0,30.19,ENE,60,1.0,-999.0,29,-99.99,,,0.00,weatherlink.com 1.10,2013-06-02 00:44:00,
2013-06-01 18:59:00,69.7,37.0,30.19,SE,126,0.0,-999.0,30,-99.99,,,0.00,weatherlink.com 1.10,2013-06-02 00:59:00,
2013-06-01 19:14:00,68.5,37.0,30.19,ESE,114,0.0,-999.0,31,-99.99,,,0.00,weatherlink.com 1.10,2013-06-02 01:14:00,
2013-06-01 19:29:00,68.8,38.0,30.20,ESE,114,0.0,-999.0,32,-99.99,,,0.00,weatherlink.com 1.10,2013-06-02 01:29:00,
2013-06-01 19:44:00,67.1,41.0,30.20,ESE,114,1.0,-999.0,39,-99.99,,,0.00,weatherlink.com 1.10,2013-06-02 01:44:00,
2013-06-01 19:59:00,65.2,39.0,30.20,SSE,163,0.0,-999.0,39,-99.99,,,0.00,weatherlink.com 1.10,2013-06-02 01:59:00,
2013-06-01 20:14:00,62.9,39.0,30.20,West,262,4.0,-999.0,41,-99.99,,,0.00,weatherlink.com 1.10,2013-06-02 02:14:00,
2013-06-01 20:29:00,61.1,38.0,30.21,NE,51,3.0,-999.0,43,-99.99,,,0.00,weatherlink.com 1.10,2013-06-02 02:29:00,
2013-06-01 20:44:00,58.4,39.0,30.21,NW,321,1.0,-999.0,49,-99.99,,,0.00,weatherlink.com 1.10,2013-06-02 02:44:00,
2013-06-01 20:59:00,57.1,38.0,30.23,NW,321,2.0,-999.0,50,-99.99,,,0.00,weatherlink.com 1.10,2013-06-02 02:59:00,
2013-06-01 21:14:00,55.7,36.0,30.24,NW,323,3.0,-999.0,47,-99.99,,,0.00,weatherlink.com 1.10,2013-06-02 03:14:00,
2013-06-01 21:29:00,55.9,33.0,30.24,NNW,338,2.0,-999.0,43,-99.99,,,0.00,weatherlink.com 1.10,2013-06-02 03:29:00,
2013-06-01 21:44:00,56.4,33.0,30.25,NNW,327,4.0,-999.0,42,-99.99,,,0.00,weatherlink.com 1.10,2013-06-02 03:44:00,
2013-06-01 21:59:00,56.8,33.0,30.25,NNE,17,0.0,-999.0,40,-99.99,,,0.00,weatherlink.com 1.10,2013-06-02 03:59:00,
2013-06-01 22:14:00,57.2,36.0,30.26,NNE,17,0.0,-999.0,46,-99.99,,,0.00,weatherlink.com 1.10,2013-06-02 04:14:00,
2013-06-01 22:29:00,56.7,35.0,30.26,North,355,0.0,-999.0,45,-99.99,,,0.00,weatherlink.com 1.10,2013-06-02 04:29:00,
2013-06-01 22:44:00,56.6,36.0,30.26,North,355,0.0,-999.0,46,-99.99,,,0.00,weatherlink.com 1.10,2013-06-02 04:44:00,
2013-06-01 22:59:00,55.9,35.0,30.26,North,355,0.0,-999.0,45,-99.99,,,0.00,weatherlink.com 1.10,2013-06-02 04:59:00,
2013-06-01 23:14:00,55.1,34.0,30.26,West,271,2.0,-999.0,46,-99.99,,,0.00,weatherlink.com 1.10,2013-06-02 05:14:00,
2013-06-01 23:29:00,54.1,34.0,30.25,WSW,256,3.0,-999.0,46,-99.99,,,0.00,weatherlink.com 1.10,2013-06-02 05:29:00,
2013-06-01 23:44:00,53.3,33.0,30.25,West,273,4.0,-999.0,46,-99.99,,,0.00,weatherlink.com 1.10,2013-06-02 05:44:00,